EA4TN Weather Reports


time (UTC)temp
C
wind
direction
speed
KPH
gust
KPH
rain 1hr
cm
rain 24hr
cm
rain mn
cm
humidity
%
barometer
mb
20260504035016 12 266 3.2 6.4 0.00 0.08 0.00 76 1012.1
20260504034016 12 266 3.2 6.4 0.00 0.08 0.00 76 1012.0
20260504033016 12 245 3.2 6.4 0.00 0.08 0.00 75 1012.1
20260504032017 12 213 3.2 8.0 0.00 0.08 0.00 75 1012.1
20260504031016 12 239 3.2 6.4 0.00 0.08 0.00 74 1012.1
20260504030017 12 260 3.2 8.0 0.00 0.08 0.00 74 1012.2
20260504025036 12 266 1.6 6.4 0.00 0.08 0.00 74 1012.1
20260504024036 12 264 3.2 4.8 0.00 0.08 0.00 74 1012.2
20260504023036 12 271 3.2 4.8 0.00 0.08 0.00 73 1012.2
20260504022016 12 269 3.2 6.4 0.00 0.08 0.00 73 1012.2
20260504021016 13 251 1.6 4.8 0.00 0.08 0.00 73 1012.3
20260504020016 13 243 3.2 8.0 0.00 0.08 0.00 72 1012.2
20260504015016 13 244 1.6 8.0 0.00 0.08 0.00 72 1012.3
20260504014016 13 261 1.6 6.4 0.00 0.08 0.00 71 1012.5
20260504013016 13 257 3.2 6.4 0.00 0.08 0.00 70 1012.5
20260504012016 14 266 1.6 9.7 0.00 0.08 0.00 69 1012.6
20260504011016 14 269 3.2 8.0 0.00 0.08 0.00 69 1012.6
20260504010037 14 243 1.6 4.8 0.00 0.08 0.00 68 1012.6
20260504005016 14 261 1.6 3.2 0.00 0.08 0.00 68 1012.6
20260504004016 14 262 1.6 4.8 0.00 0.08 0.00 67 1012.7
20260504003016 14 264 1.6 3.2 0.00 0.08 0.00 67 1012.7
20260504002016 15 274 1.6 4.8 0.00 0.08 0.00 67 1012.7
20260504001016 15 267 1.6 6.4 0.00 0.08 0.00 66 1012.8
20260504000017 15 259 3.2 6.4 0.00 0.08 0.00 66 1012.8
20260503235016 15 234 1.6 6.4 0.00 0.08 0.08 66 1012.9
20260503234016 15 266 3.2 6.4 0.00 0.08 0.08 65 1013.1
20260503233016 15 255 3.2 6.4 0.00 0.08 0.08 65 1013.2
20260503232016 15 240 3.2 6.4 0.00 0.08 0.08 65 1013.2
20260503231016 15 239 1.6 6.4 0.00 0.08 0.08 64 1013.1
20260503230016 15 249 3.2 6.4 0.00 0.08 0.08 64 1013.1
20260503225036 15 246 3.2 6.4 0.00 0.08 0.08 64 1013.1
20260503224036 15 252 1.6 4.8 0.00 0.15 0.08 64 1013.0
20260503223016 15 244 1.6 4.8 0.00 0.15 0.08 65 1013.0
20260503222016 15 229 3.2 4.8 0.00 0.15 0.08 64 1013.1
20260503221016 15 240 1.6 6.4 0.00 0.15 0.08 64 1012.9
20260503220016 16 261 3.2 6.4 0.00 0.15 0.08 63 1013.1
20260503215016 16 265 1.6 4.8 0.00 0.15 0.08 63 1013.1
20260503214016 16 253 1.6 4.8 0.00 0.15 0.08 63 1012.9
20260503213016 16 265 3.2 4.8 0.00 0.15 0.08 61 1012.8
20260503212016 16 258 3.2 8.0 0.00 0.15 0.08 58 1012.8
20260503211016 16 265 1.6 4.8 0.00 0.15 0.08 58 1012.7
20260503210036 16 263 3.2 8.0 0.00 0.15 0.08 59 1012.5
20260503205016 16 265 3.2 6.4 0.00 0.15 0.08 59 1012.4
20260503204016 17 268 4.8 8.0 0.00 0.15 0.08 60 1012.4
20260503203016 17 281 1.6 6.4 0.00 0.15 0.08 60 1012.2
20260503202016 17 277 3.2 9.7 0.00 0.15 0.08 60 1012.1
20260503201016 17 290 3.2 8.0 0.00 0.15 0.08 61 1011.8
20260503200016 17 272 3.2 8.0 0.00 0.15 0.08 61 1011.7
20260503195016 17 258 3.2 6.4 0.00 0.15 0.08 61 1011.6
20260503194016 17 265 3.2 8.0 0.00 0.15 0.08 60 1011.5
20260503193036 17 277 4.8 11.3 0.00 0.15 0.08 59 1011.3
20260503192036 17 281 4.8 12.9 0.00 0.15 0.08 58 1011.4
20260503191016 17 268 4.8 8.0 0.00 0.15 0.08 56 1011.2
20260503190016 18 265 8.0 12.9 0.00 0.15 0.08 56 1011.1
20260503185016 18 270 4.8 12.9 0.00 0.15 0.08 57 1011.0
20260503184036 18 262 8.0 16.1 0.00 0.15 0.08 55 1011.1
20260503183016 18 268 8.0 12.9 0.00 0.15 0.08 54 1011.1
20260503182016 18 275 9.7 17.7 0.00 0.15 0.08 55 1011.0
20260503181016 18 273 9.7 22.5 0.00 0.15 0.08 55 1011.1
20260503180016 18 271 9.7 19.3 0.00 0.15 0.08 54 1011.0
20260503175016 19 269 11.3 20.9 0.00 0.15 0.08 54 1011.1
20260503174036 19 280 8.0 20.9 0.00 0.15 0.08 54 1011.0
20260503173016 19 276 9.7 20.9 0.00 0.15 0.08 53 1011.0
20260503172016 19 271 9.7 17.7 0.00 0.15 0.08 53 1010.9
20260503171036 19 273 9.7 19.3 0.00 0.15 0.08 54 1011.0
20260503131016 20 272 11.3 24.1 0.00 0.15 0.08 53 1012.2
20260503081016 15 259 1.6 8.0 0.00 0.15 0.08 91 1014.2
20260503072016 13 264 3.2 6.4 0.00 0.23 0.08 93 1013.7
20260503071017 13 262 1.6 4.8 0.05 0.23 0.08 93 1013.8
20260503055036 13 197 1.6 3.2 0.00 0.15 0.00 90 1013.2
20260503054016 13 111 0.0 3.2 0.00 0.15 0.00 90 1013.2
20260503053016 13 0.0 1.6 0.00 0.15 0.00 90 1013.2
20260503052017 13 0.0 0.0 0.00 0.15 0.00 89 1013.3
20260503051036 13 245 0.0 3.2 0.00 0.15 0.00 89 1013.4
20260503050017 13 248 1.6 4.8 0.00 0.15 0.00 89 1013.4
20260503045017 13 0.0 3.2 0.00 0.15 0.00 89 1013.3
20260503044036 13 217 1.6 3.2 0.00 0.15 0.00 88 1013.3
20260503043017 13 113 1.6 6.4 0.00 0.15 0.00 88 1013.2
20260503042017 13 116 3.2 8.0 0.00 0.15 0.00 88 1013.4
20260503041017 13 0.0 0.0 0.00 0.15 0.00 88 1013.7
20260503040017 13 124 0.0 3.2 0.00 0.15 0.00 87 1014.0